Weather History for Macon, GA

Change the Weather History Date:

Wednesday, September 19, 2012

  Actual Average Record
Temperature  
Mean Temperature 72 °F 74 °F  
Max Temperature 85 °F 85 °F 101 °F (1925)
Min Temperature 58 °F 63 °F 45 °F (1981)
Degree Days  
Heating Degree Days 0 0  
Month to date heating degree days 0 0  
Since 1 July heating degree days 0 0  
Cooling Degree Days 7 9  
Month to date cooling degree days 230 223  
Year to date cooling degree days 2128 1967  
Growing Degree Days 20 (Base 50)    
Moisture  
Dew Point 61 °F    
Average Humidity 69    
Maximum Humidity 97    
Minimum Humidity 40    
Precipitation  
Precipitation 0.00 in 0.11 in 1.67 in (1953)
Month to date precipitation 1.97 2.41  
Year to date precipitation 25.18 34.35  
Sea Level Pressure  
Sea Level Pressure 29.99 in    
Wind  
Wind Speed 3 mph (NW)    
Max Wind Speed 12 mph    
Max Gust Speed 17 mph    
Visibility 10 miles    
Events      
T = Trace of Precipitation, MM = Missing Value Source: NWS Daily Summary

Daily Weather History Graph

Daily Weather History Graph

Search for Another Location

Airport:

Trip Planner

Search our weather history database for the weather conditions in past years. The results will help you decide how hot, cold, wet, or windy it might be!

Date:

Astronomy

Sep. 19, 2012 Rise Set
Actual Time 7:21 AM EDT 7:34 PM EDT
Civil Twilight 6:56 AM EDT 7:59 PM EDT
Nautical Twilight 6:27 AM EDT 8:27 PM EDT
Astronomical Twilight 5:58 AM EDT 8:57 PM EDT
Moon 11:13 AM EDT (9/19) 10:00 PM EDT (9/19)
Length of Visible Light 13h 02m
Length of Day
12h 13m
Waxing Crescent, 17% of the Moon is Illuminated
Sep 19
Waxing Crescent
Sep 22
First Quarter
Sep 29
Full
Oct 8
Last Quarter
Oct 15
New

Hourly Weather History & Observations

Time (EDT) Temp. Heat Index Dew Point Humidity Pressure Visibility Wind Dir Wind Speed Gust Speed Precip Events Conditions
12:53 AM 68.0 °F - 64.0 °F 87% 29.91 in 10.0 mi NW 9.2 mph - N/A   Clear
1:53 AM 66.9 °F - 62.1 °F 84% 29.91 in 10.0 mi NNW 8.1 mph - N/A   Clear
2:53 AM 64.9 °F - 57.9 °F 78% 29.91 in 10.0 mi NW 5.8 mph - N/A   Clear
3:53 AM 63.0 °F - 57.9 °F 84% 29.91 in 10.0 mi NW 3.5 mph - N/A   Clear
4:53 AM 62.1 °F - 57.0 °F 84% 29.93 in 10.0 mi Calm Calm - N/A   Clear
5:53 AM 60.1 °F - 57.0 °F 90% 29.94 in 9.0 mi WNW 5.8 mph - N/A   Clear
6:53 AM 57.9 °F - 55.9 °F 93% 29.96 in 9.0 mi WNW 3.5 mph - N/A   Clear
7:53 AM 59.0 °F - 55.9 °F 90% 29.99 in 7.0 mi Calm Calm - N/A   Clear
8:53 AM 63.0 °F - 55.9 °F 78% 30.00 in 10.0 mi NNW 5.8 mph - N/A   Clear
9:53 AM 66.9 °F - 55.9 °F 68% 30.02 in 10.0 mi North 4.6 mph - N/A   Clear
10:53 AM 70.0 °F - 57.9 °F 65% 30.03 in 10.0 mi Variable 3.5 mph - N/A   Clear
11:53 AM 75.0 °F - 60.1 °F 60% 30.02 in 10.0 mi Variable 3.5 mph - N/A   Clear
12:53 PM 78.1 °F - 61.0 °F 56% 30.02 in 10.0 mi Calm Calm - N/A   Clear
1:53 PM 80.1 °F 81.1 °F 61.0 °F 52% 30.01 in 10.0 mi Variable 4.6 mph - N/A   Clear
2:53 PM - - - N/A% 30.01 in 10.0 mi West 8.1 mph - N/A   Clear
3:53 PM 84.0 °F 83.5 °F 57.9 °F 41% 29.99 in 10.0 mi Calm Calm - N/A   Clear
4:53 PM 84.0 °F 83.8 °F 59.0 °F 43% 29.99 in 10.0 mi Calm Calm - N/A   Clear
5:53 PM 82.0 °F 82.7 °F 61.0 °F 49% 29.99 in 10.0 mi Calm Calm - N/A   Clear
6:53 PM 77.0 °F - 64.9 °F 66% 30.00 in 10.0 mi East 3.5 mph - N/A   Clear
7:53 PM 73.9 °F - 64.9 °F 73% 30.01 in 10.0 mi Calm Calm - N/A   Clear
8:53 PM 69.8 °F - 68.0 °F 94% 30.03 in 10.0 mi SSW 3.5 mph - N/A   Scattered Clouds
9:53 PM 71.1 °F - 66.0 °F 84% 30.04 in 10.0 mi Calm Calm - N/A   Mostly Cloudy
10:53 PM 69.1 °F - 66.0 °F 90% 30.05 in 10.0 mi Calm Calm - N/A   Clear
11:53 PM 69.1 °F - 66.0 °F 90% 30.06 in 10.0 mi Calm Calm - N/A   Scattered Clouds